Time,TemperatureF,DewpointF,PressureIn,WindDirection,WindDirectionDegrees,WindSpeedMPH,WindSpeedGustMPH,Humidity,HourlyPrecipIn,Conditions,Clouds,dailyrainin,SoftwareType,DateUTC
2013-12-18 00:00:00,52.0,46.0,30.29,WNW,290,6.0,7.0,80,-99.99,,,-99.99,,2013-12-18 06:00:00,
2013-12-18 00:42:00,52.0,46.0,30.29,WNW,290,6.0,7.0,80,-99.99,,,-99.99,,2013-12-18 06:42:00,
2013-12-18 00:52:00,52.0,46.0,30.29,WNW,290,6.0,7.0,80,-99.99,,,-99.99,,2013-12-18 06:52:00,
2013-12-18 01:00:00,51.0,45.0,30.28,West,280,7.0,8.0,78,-99.99,,,-99.99,,2013-12-18 07:00:00,
2013-12-18 01:42:00,51.0,45.0,30.28,West,280,7.0,8.0,78,-99.99,,,-99.99,,2013-12-18 07:42:00,
2013-12-18 01:52:00,51.0,45.0,30.28,West,280,7.0,8.0,78,-99.99,,,-99.99,,2013-12-18 07:52:00,
2013-12-18 02:00:00,51.0,45.0,30.28,WNW,290,8.0,8.0,77,-99.99,,,-99.99,,2013-12-18 08:00:00,
2013-12-18 02:42:00,51.0,45.0,30.28,WNW,290,8.0,8.0,77,-99.99,,,-99.99,,2013-12-18 08:42:00,
2013-12-18 02:52:00,51.0,45.0,30.28,WNW,290,8.0,8.0,77,-99.99,,,-99.99,,2013-12-18 08:52:00,
2013-12-18 03:00:00,52.0,42.0,30.28,WNW,300,6.0,7.0,70,-99.99,,,-99.99,,2013-12-18 09:00:00,
2013-12-18 03:43:00,52.0,42.0,30.28,WNW,300,6.0,7.0,70,-99.99,,,-99.99,,2013-12-18 09:43:00,
2013-12-18 03:53:00,52.0,42.0,30.28,WNW,300,6.0,7.0,70,-99.99,,,-99.99,,2013-12-18 09:53:00,
2013-12-18 04:00:00,50.0,40.0,30.28,NW,320,7.0,7.0,68,-99.99,,,-99.99,,2013-12-18 10:00:00,
2013-12-18 04:42:00,50.0,40.0,30.28,NW,320,7.0,7.0,68,-99.99,,,-99.99,,2013-12-18 10:42:00,
2013-12-18 04:52:00,50.0,40.0,30.28,NW,320,7.0,7.0,68,-99.99,,,-99.99,,2013-12-18 10:52:00,
2013-12-18 05:00:00,51.0,43.0,30.28,NNE,20,13.0,14.0,73,-99.99,,,-99.99,,2013-12-18 11:00:00,
2013-12-18 05:42:00,51.0,43.0,30.28,NNE,20,13.0,14.0,73,-99.99,,,-99.99,,2013-12-18 11:42:00,
2013-12-18 05:52:00,51.0,43.0,30.28,NNE,20,13.0,14.0,73,-99.99,,,-99.99,,2013-12-18 11:52:00,
2013-12-18 06:00:00,51.0,43.0,30.30,North,10,16.0,17.0,73,-99.99,,,-99.99,,2013-12-18 12:00:00,
2013-12-18 06:42:00,51.0,43.0,30.30,North,10,16.0,17.0,73,-99.99,,,-99.99,,2013-12-18 12:42:00,
2013-12-18 06:52:00,51.0,43.0,30.30,North,10,16.0,17.0,73,-99.99,,,-99.99,,2013-12-18 12:52:00,
2013-12-18 07:00:00,52.0,42.0,30.32,NNE,20,13.0,14.0,69,-99.99,,,-99.99,,2013-12-18 13:00:00,
2013-12-18 07:41:00,52.0,42.0,30.32,NNE,20,13.0,14.0,69,-99.99,,,-99.99,,2013-12-18 13:41:00,
2013-12-18 07:52:00,52.0,42.0,30.32,NNE,20,13.0,14.0,69,-99.99,,,-99.99,,2013-12-18 13:52:00,
2013-12-18 08:00:00,51.0,42.0,30.34,NE,40,11.0,13.0,70,-99.99,,,-99.99,,2013-12-18 14:00:00,
2013-12-18 08:42:00,51.0,42.0,30.34,NE,40,11.0,13.0,70,-99.99,,,-99.99,,2013-12-18 14:42:00,
2013-12-18 08:52:00,51.0,42.0,30.34,NE,40,11.0,13.0,70,-99.99,,,-99.99,,2013-12-18 14:52:00,
2013-12-18 09:00:00,51.0,41.0,30.36,NE,40,13.0,14.0,70,-99.99,,,-99.99,,2013-12-18 15:00:00,
2013-12-18 09:44:00,51.0,41.0,30.36,NE,40,13.0,14.0,70,-99.99,,,-99.99,,2013-12-18 15:44:00,
2013-12-18 09:53:00,51.0,41.0,30.36,NE,40,13.0,14.0,70,-99.99,,,-99.99,,2013-12-18 15:53:00,
2013-12-18 10:00:00,51.0,42.0,30.37,NE,40,8.0,9.0,71,-99.99,,,-99.99,,2013-12-18 16:00:00,
2013-12-18 10:42:00,51.0,42.0,30.37,NE,40,8.0,9.0,71,-99.99,,,-99.99,,2013-12-18 16:42:00,
2013-12-18 10:53:00,51.0,42.0,30.37,NE,40,8.0,9.0,71,-99.99,,,-99.99,,2013-12-18 16:53:00,
2013-12-18 11:00:00,52.0,44.0,30.36,NNE,20,5.0,6.0,75,-99.99,,,-99.99,,2013-12-18 17:00:00,
2013-12-18 11:42:00,52.0,44.0,30.36,NNE,20,5.0,6.0,75,-99.99,,,-99.99,,2013-12-18 17:42:00,
2013-12-18 11:52:00,52.0,44.0,30.36,NNE,20,5.0,6.0,75,-99.99,,,-99.99,,2013-12-18 17:52:00,
2013-12-18 12:00:00,52.0,44.0,30.33,North,350,3.0,3.0,73,-99.99,,,-99.99,,2013-12-18 18:00:00,
2013-12-18 12:42:00,52.0,44.0,30.33,North,350,3.0,3.0,73,-99.99,,,-99.99,,2013-12-18 18:42:00,
2013-12-18 12:52:00,52.0,44.0,30.33,North,350,3.0,3.0,73,-99.99,,,-99.99,,2013-12-18 18:52:00,
2013-12-18 13:00:00,53.0,45.0,30.30,NNW,340,5.0,5.0,74,-99.99,,,-99.99,,2013-12-18 19:00:00,
2013-12-18 13:42:00,53.0,45.0,30.30,NNW,340,5.0,5.0,74,-99.99,,,-99.99,,2013-12-18 19:42:00,
2013-12-18 13:52:00,53.0,45.0,30.30,NNW,340,5.0,5.0,74,-99.99,,,-99.99,,2013-12-18 19:52:00,
2013-12-18 14:00:00,55.0,44.0,30.28,NNW,340,2.0,2.0,65,-99.99,,,-99.99,,2013-12-18 20:00:00,
2013-12-18 14:42:00,55.0,44.0,30.28,NNW,340,2.0,2.0,65,-99.99,,,-99.99,,2013-12-18 20:42:00,
2013-12-18 14:52:00,55.0,44.0,30.28,NNW,340,2.0,2.0,65,-99.99,,,-99.99,,2013-12-18 20:52:00,
2013-12-18 15:00:00,59.0,41.0,30.28,SSE,150,2.0,2.0,51,-99.99,,,-99.99,,2013-12-18 21:00:00,
2013-12-18 15:43:00,59.0,41.0,30.28,SSE,150,2.0,2.0,51,-99.99,,,-99.99,,2013-12-18 21:43:00,
2013-12-18 15:53:00,59.0,41.0,30.28,SSE,150,2.0,2.0,51,-99.99,,,-99.99,,2013-12-18 21:53:00,
2013-12-18 16:00:00,58.0,41.0,30.28,SSE,150,2.0,2.0,54,-99.99,,,-99.99,,2013-12-18 22:00:00,
2013-12-18 16:43:00,58.0,41.0,30.28,SSE,150,2.0,2.0,54,-99.99,,,-99.99,,2013-12-18 22:43:00,
2013-12-18 16:52:00,58.0,41.0,30.28,SSE,150,2.0,2.0,54,-99.99,,,-99.99,,2013-12-18 22:52:00,
2013-12-18 17:00:00,57.0,44.0,30.27,South,180,3.0,3.0,61,-99.99,,,-99.99,,2013-12-18 23:00:00,
2013-12-18 17:42:00,57.0,44.0,30.27,South,180,3.0,3.0,61,-99.99,,,-99.99,,2013-12-18 23:42:00,
2013-12-18 17:53:00,57.0,44.0,30.27,South,180,3.0,3.0,61,-99.99,,,-99.99,,2013-12-18 23:53:00,
2013-12-18 18:00:00,57.0,44.0,30.27,South,170,3.0,5.0,61,-99.99,,,-99.99,,2013-12-19 00:00:00,
2013-12-18 18:42:00,57.0,44.0,30.27,South,170,3.0,5.0,61,-99.99,,,-99.99,,2013-12-19 00:42:00,
2013-12-18 18:52:00,57.0,44.0,30.27,South,170,3.0,5.0,61,-99.99,,,-99.99,,2013-12-19 00:52:00,
2013-12-18 19:00:00,56.0,47.0,30.27,ESE,120,3.0,3.0,70,-99.99,,,-99.99,,2013-12-19 01:00:00,
2013-12-18 19:42:00,56.0,47.0,30.27,ESE,120,3.0,3.0,70,-99.99,,,-99.99,,2013-12-19 01:42:00,
2013-12-18 19:52:00,56.0,47.0,30.27,ESE,120,3.0,3.0,70,-99.99,,,-99.99,,2013-12-19 01:52:00,
2013-12-18 20:00:00,58.0,45.0,30.27,East,80,6.0,7.0,62,-99.99,,,-99.99,,2013-12-19 02:00:00,
2013-12-18 20:52:00,58.0,45.0,30.27,East,80,6.0,7.0,62,-99.99,,,-99.99,,2013-12-19 02:52:00,
2013-12-18 21:00:00,57.0,48.0,30.28,East,100,3.0,3.0,71,-99.99,,,-99.99,,2013-12-19 03:00:00,
2013-12-18 21:43:00,57.0,48.0,30.28,East,100,3.0,3.0,71,-99.99,,,-99.99,,2013-12-19 03:43:00,
2013-12-18 21:53:00,57.0,48.0,30.28,East,100,3.0,3.0,71,-99.99,,,-99.99,,2013-12-19 03:53:00,
2013-12-18 22:00:00,56.0,48.0,30.27,East,80,5.0,5.0,72,-99.99,,,-99.99,,2013-12-19 04:00:00,
2013-12-18 22:42:00,56.0,48.0,30.27,East,80,5.0,5.0,72,-99.99,,,-99.99,,2013-12-19 04:42:00,
2013-12-18 22:52:00,56.0,48.0,30.27,East,80,5.0,5.0,72,-99.99,,,-99.99,,2013-12-19 04:52:00,
2013-12-18 23:00:00,54.0,50.0,30.27,East,80,2.0,3.0,86,-99.99,,,-99.99,,2013-12-19 05:00:00,
2013-12-18 23:42:00,54.0,50.0,30.27,East,80,2.0,3.0,86,-99.99,,,-99.99,,2013-12-19 05:42:00,
2013-12-18 23:52:00,54.0,50.0,30.27,East,80,2.0,3.0,86,-99.99,,,-99.99,,2013-12-19 05:52:00,